Altoona, PA

7:55 AM EDT on August 22, 2019 (GMT -0400)
Altoona-Blair County

Weather History for KAOO - May, 2019

Change the Weather History Date:

Thursday, May 16, 2019

  Actual Average Record
Temperature  
Mean Temperature 61 °F 58 °F  
Max Temperature 73 °F 69 °F 90 °F (1962)
Min Temperature 49 °F 47 °F 33 °F (1984)
Degree Days  
Heating Degree Days 4 8  
Month to date heating degree days 99 152  
Since 1 July heating degree days 5653 6070  
Cooling Degree Days 0 1  
Month to date cooling degree days 8 6  
Year to date cooling degree days 8 12  
Growing Degree Days 10 (Base 50)    
Moisture  
Dew Point 47 °F    
Average Humidity 65    
Maximum Humidity 93    
Minimum Humidity 36    
Precipitation  
Precipitation 0.08 in 0.12 in 1.10 in (2014)
Month to date precipitation 4.06 1.88  
Year to date precipitation 16.87 12.35  
Sea Level Pressure  
Sea Level Pressure 29.91 in    
Wind  
Wind Speed 7 mph (West)    
Max Wind Speed 18 mph    
Max Gust Speed 24 mph    
Visibility 9 miles    
Events Rain    
T = Trace of Precipitation, MM = Missing Value Source: NWS Daily Summary

Daily Weather History Graph

Daily Weather History Graph

Search for Another Location

Airport or City:

Astronomy

May. 16, 2019 Rise Set
Actual Time 5:56 AM EDT 8:23 PM EDT
Civil Twilight 5:25 AM EDT 8:54 PM EDT
Nautical Twilight 4:47 AM EDT 9:32 PM EDT
Astronomical Twilight 4:04 AM EDT 10:15 PM EDT
Moon 6:00 PM EDT (5/16) 4:54 AM EDT (5/16)
Length of Visible Light 15h 28m
Length of Day
14h 26m
Waxing Gibbous, 94% of the Moon is Illuminated
May 16
Waxing Gibbous
May 18
Full
May 26
Last Quarter
Jun 3
New
Jun 10
First Quarter

Hourly Weather History & Observations

Time (EDT) Temp. Dew Point Humidity Pressure Visibility Wind Dir Wind Speed Gust Speed Precip Events Conditions
12:53 AM 55.0 °F 45.0 °F 69% 29.91 in 10.0 mi SSW 3.5 mph - 0.00 in   Overcast
1:53 AM 54.0 °F 45.0 °F 72% 29.91 in 10.0 mi WSW 3.5 mph - N/A   Overcast
2:53 AM 53.1 °F 46.0 °F 77% 29.91 in 7.0 mi NW 6.9 mph - 0.01 in Rain Rain
3:53 AM 52.0 °F 48.0 °F 86% 29.89 in 8.0 mi WSW 5.8 mph - 0.02 in Rain Light Rain
4:53 AM 52.0 °F 48.9 °F 89% 29.90 in 9.0 mi SSE 4.6 mph - 0.05 in Rain Light Rain
5:53 AM 50.0 °F 48.0 °F 93% 29.91 in 6.0 mi Calm Calm - 0.00 in   Mostly Cloudy
6:48 AM 48.2 °F 46.4 °F 93% 29.93 in 2.5 mi Calm Calm - N/A   Mostly Cloudy
6:53 AM 48.9 °F 46.9 °F 93% 29.94 in 3.0 mi Calm Calm - N/A   Mostly Cloudy
7:53 AM 53.1 °F 50.0 °F 89% 29.94 in 5.0 mi NW 3.5 mph - N/A   Clear
8:53 AM 57.0 °F 50.0 °F 77% 29.94 in 10.0 mi West 8.1 mph - N/A   Clear
9:53 AM 61.0 °F 51.1 °F 70% 29.94 in 10.0 mi NW 11.5 mph - N/A   Partly Cloudy
10:53 AM 64.0 °F 50.0 °F 60% 29.93 in 10.0 mi NW 10.4 mph - N/A   Clear
11:53 AM 64.9 °F 48.0 °F 54% 29.94 in 10.0 mi NNW 11.5 mph 17.3 mph N/A   Scattered Clouds
12:53 PM 68.0 °F 44.1 °F 42% 29.92 in 10.0 mi NW 13.8 mph 20.7 mph N/A   Clear
1:53 PM 70.0 °F 41.0 °F 35% 29.91 in 10.0 mi NW 8.1 mph - N/A   Clear
2:53 PM 71.1 °F 45.0 °F 39% 29.90 in 10.0 mi NW 13.8 mph 23.0 mph N/A   Partly Cloudy
3:53 PM 72.0 °F 45.0 °F 38% 29.88 in 10.0 mi WNW 12.7 mph 18.4 mph N/A   Scattered Clouds
4:53 PM 71.1 °F 46.0 °F 41% 29.88 in 10.0 mi WNW 11.5 mph - N/A   Mostly Cloudy
5:53 PM 68.0 °F 44.1 °F 42% 29.87 in 10.0 mi WNW 11.5 mph - N/A   Clear
6:53 PM 66.0 °F 46.0 °F 48% 29.87 in 10.0 mi West 4.6 mph - N/A   Clear
7:53 PM 66.0 °F 45.0 °F 47% 29.88 in 10.0 mi WSW 4.6 mph - N/A   Clear
8:53 PM 61.0 °F 46.0 °F 58% 29.89 in 10.0 mi South 4.6 mph - N/A   Clear
9:53 PM 59.0 °F 46.0 °F 62% 29.90 in 10.0 mi SSW 5.8 mph - N/A   Clear
10:53 PM 57.9 °F 48.0 °F 70% 29.88 in 10.0 mi SW 5.8 mph - N/A   Clear
11:53 PM 57.9 °F 46.9 °F 67% 29.87 in 10.0 mi SW 5.8 mph - N/A   Clear